Retour au catalogue

STARLINK-36470

ActifCommunicationsVLEO
NORAD 67319·PAYLOAD·🇺🇸 United States

Lancé Jan 4, 2026 depuis Cape Canaveral Space Force Station

Loading…

Prochains Passages (prochaines 24 heures)

TLE

FraisSource: CelesTrak SupGP

Époque: Sep 15, 2026, 04:23 UTC

1 67319C 26002Q   26258.18312500  .00039058  00000+0  14144-2 0  2587
2 67319  43.0019 335.2802 0001506 260.5076 239.5348 15.27565969    16

Suivez STARLINK-36470 en temps réel avec AllMySat

Download on the App Store